Flag for Canada Weather past 2 weeks in Saint-Georges, Quebec, Canada

Now
66 °F

Mild.


Feels Like: 66 °F
Forecast: 52 / 76 °F
Wind: 2 mph from Northwest

Location: Beauceville

Current Time: Sep 3, 2015 at 5:22:54 AM

Latest Report: Sep 3, 2015 at 4:00 AM


Visibility: N/A

Pressure: 29.83 "Hg

Humidity: N/A

Dew point: N/A

Location of Saint-GeorgesLocation

Historic Weather in Saint-Georges — Graph

°F

Saint-Georges temperature yesterday

Maximum temperature yesterday: 80 °F (at 4:00 PM)
Minimum temperature yesterday: 57 °F (at 3:00 AM)
Average temperature yesterday: 69 °F

Past Weeks' High & Low Weather Summary

 TemperatureHumidityPressure
High84 °F (Aug 20, 2:00 PM)100% (Aug 19, 4:00 AM)30.17 "Hg (Aug 19, 4:00 AM)
Low46 °F (Sep 1, 6:00 AM)39% (Aug 23, 3:00 PM)29.79 "Hg (Aug 31, 4:00 PM)
Average66 °F81%29.99 "Hg
* Reported Aug 19 4:00 AM — Sep 3 4:00 AM, Saint-Georges, Weather by CustomWeather, © 2015

Note: Actual official high and low records may vary slightly from our data, if they occured in-between our weather recording intervals... More about our weather records

Advertising

Saint-Georges weather history for previous 24 hours

 ConditionsComfort  
Time TempWeatherWind HumidityBarometerVisibility
4:00 AM
Thu, Sep 3
66 °FMild.2 mphN/A29.83 "HgN/A
3:00 AM67 °FMild.1 mph100%29.83 "HgN/A
2:00 AM67 °FMild.2 mph100%29.84 "HgN/A
1:00 AM68 °FMild.1 mph99%29.84 "HgN/A
12:00 AM68 °FMild.1 mph97%29.85 "HgN/A
11:00 PM
Wed, Sep 2
68 °FMild.3 mph99%29.85 "HgN/A
10:00 PM69 °FMild.1 mph93%29.85 "HgN/A
9:00 PM71 °FMild.1 mph87%29.85 "HgN/A
8:00 PM72 °FMild.1 mph84%29.86 "HgN/A
7:00 PM74 °FMild.2 mph79%29.86 "HgN/A
6:00 PM77 °FWarm.2 mph69%29.86 "HgN/A
5:00 PM79 °FWarm.6 mph64%29.85 "HgN/A
4:00 PM80 °FWarm.5 mph65%29.87 "HgN/A
3:00 PM79 °FWarm.6 mph65%29.89 "HgN/A
2:00 PM79 °FWarm.6 mph67%29.91 "HgN/A
1:00 PM78 °FWarm.5 mph70%29.93 "HgN/A
12:00 PM77 °FMild.6 mph70%29.93 "HgN/A
10:00 AM69 °FMild.1 mph93%29.95 "HgN/A
9:00 AM68 °FMild.1 mph96%29.96 "HgN/A
8:00 AM65 °FMild.1 mph98%29.96 "HgN/A
7:00 AM64 °FMild.1 mph98%29.96 "HgN/A
6:00 AM66 °FMild.2 mph95%29.95 "HgN/A
5:00 AM65 °FMild.3 mph95%29.95 "HgN/A
Weather by CustomWeather, © 2015

See weather overviewHow to use our weather pages